World of Logs combat log analyzer allows gamers to save, share and analyze their raiding experiences conveniently and thoroughly in the Blizzard MMO World of Warcraft. If you're new here, make sure you check out the tour for a 1 minute introduction. If you have any questions, we're happy to answer them on the forums.

DPS HPS
Odyn
Helya
Guarm
Reports for Blood-Queen Lana'thel - statistics
# Date Time Damage DPS Guild Realm
101 27 Nov 2010 03:09 59.41M 312769.9 Damnation US-Warsong
102 28 Jul 2012 03:10 59.48M 312240.1 Armada Lusitana EU-Aggra
103 20 Sep 2011 03:10 59.41M 311752.4 Froststahl & Teufelskekse EU-Die Silberne Hand
104 20 Oct 2011 03:10 59.46M 311917.1 Right on Red US-Maelstrom
105 05 Jan 2012 03:10 59.47M 311905.9 Reckoning EU-Outland
106 27 Oct 2011 03:10 61.20M 320701.3 Lisowczycy EU-Nagrand
107 26 Nov 2011 03:11 55.95M 292471.9 Phoenix Resurrection US-Proudmoore
108 07 Nov 2018 03:11 59.56M 310896.4 Норм твари EU-Vol'jin
109 05 Nov 2011 03:11 58.98M 307792.8 exiled alliance US-Muradin
110 22 Dec 2010 03:11 59.44M 309750.3 Hexed US-Stormrage
111 26 Mar 2011 03:12 59.42M 309131.8 Renaissance EU-Uldaman
112 14 Apr 2012 03:12 59.44M 308674.9 Hail Satan US-Illidan
113 16 Dec 2011 03:13 59.47M 306953.5 The Hordehound Gang US-Dentarg
114 12 Aug 2012 03:14 59.46M 306336.0 Certavi US-Nesingwary
115 08 Jan 2011 03:15 60.06M 307540.3 Faded Dreams US-Blackhand
116 14 Jan 2011 03:15 59.42M 304165.5 Wolfpax EU-Rexxar
117 17 Sep 2011 03:15 60.93M 311758.4 Elite der Apokalpyse EU-Antonidas
118 05 Nov 2011 03:15 59.42M 304000.0 Temporalis Bellatoris EU-Das Syndikat
119 29 Jul 2012 03:15 59.52M 304117.2 Rothalax US-Argent Dawn
120 23 Nov 2010 03:15 59.45M 303424.8 Aftermath US-Kel'Thuzad
121 23 Nov 2010 03:16 59.45M 303225.2 Singularity US-Illidan
122 09 Apr 2012 03:16 59.40M 302635.8 Challenge Accepted [H] US-Quel'dorei
123 19 Oct 2011 03:16 59.40M 302586.1 The Only Escape EU-Kel'Thuzad
124 16 Oct 2011 03:16 59.43M 302642.9 Nub Squad EU-Kul Tiras
125 27 May 2012 03:16 59.43M 302367.6 Faded Memories EU-Frostwolf
126 05 Mar 2012 03:16 59.52M 302463.2 Lekma iéska EU-Die Todeskrallen
127 30 Nov 2010 03:16 59.44M 301802.3 Acid's Logs US-Ner'zhul
128 30 Nov 2010 03:16 59.44M 301797.7 Incarnate US-Ner'zhul
129 03 Jun 2012 03:17 59.81M 303070.1 Ward of Dawn US-Arthas
130 11 Aug 2012 03:17 60.53M 306620.7 Infernale EU-Der Mithrilorden
131 30 Nov 2010 03:17 59.52M 301197.2 Bansath US-Gorgonnash
132 21 Apr 2012 03:17 64.12M 324334.4 Unwise elders EU-Aerie Peak
133 14 Jun 2012 03:18 61.20M 308868.9 Buraan logs EU-Auchindoun
134 17 Nov 2010 03:18 59.46M 298944.4 Nazgul US-Khaz'goroth
135 27 Dec 2011 03:19 59.43M 298524.4 Varjo Soturi Failbarone EU-Alleria
136 18 Nov 2010 03:19 59.48M 298346.6 Revontuli EU-Lightbringer
137 16 Aug 2012 03:19 59.45M 297811.5 LFRs US-Maelstrom
138 09 Apr 2011 03:19 60.55M 302967.2 SECURITY US-Arthas
139 03 May 2012 03:19 60.44M 302344.4 The Stonewall Family US-Proudmoore
140 12 Apr 2012 03:20 59.42M 295691.2 Solwinas Practice EU-Shattered Hand
141 14 Oct 2011 03:21 59.45M 294448.4 sky inferno US-Icecrown
142 20 Apr 2017 03:22 59.44M 293650.8 Nep EU-Aegwynn
143 26 Mar 2012 03:22 59.42M 293074.7 Knights Of Shadow US-Arthas
144 14 Jan 2012 03:23 60.24M 296559.7 SundayFunday US-Stormscale
145 23 Nov 2010 03:24 61.50M 301279.3 Frenzy's Logs US-Turalyon
146 20 Nov 2011 03:24 55.46M 271153.1 Exøs EU-Dalaran
147 26 May 2012 03:24 59.48M 290475.2 Fraternita Oscura EU-Die ewige Wacht
148 18 Feb 2012 03:25 59.46M 289270.3 SolidCore_10twinks EU-Anetheron
149 21 Oct 2011 03:27 59.37M 286397.3 Guiles Theme Song US-Magtheridon
150 19 Feb 2011 03:27 59.37M 285939.7 Casual US-Hyjal
151 24 Nov 2010 03:28 59.41M 284260.8 LOG EU-Twisting Nether
152 21 Aug 2011 03:29 55.44M 264309.7 Remedy US-Kalecgos
153 06 Dec 2011 03:30 59.65M 283755.3 Mutual Hatred US-Windrunner
154 24 Apr 2012 03:31 61.51M 291289.1 День Перемен EU-Галакронд
155 26 Dec 2011 03:31 59.41M 280246.6 Iron Edge (A-Raid) EU-Dunemaul
156 17 Mar 2012 03:32 59.42M 280194.7 uda uda US-Greymane
157 18 Mar 2012 03:32 59.45M 279948.2 Namastè US-Sen'jin
158 25 Jul 2012 03:33 59.45M 278914.7 Keyd Team US-Nemesis
159 15 Oct 2018 03:33 59.53M 278827.2 Норм твари EU-Vol'jin
160 01 Apr 2012 03:33 59.42M 278310.2 It Will Be Glorious US-Kirin Tor
161 19 Feb 2011 03:33 59.45M 278426.8 The Asparagus Initiative US-Aerie Peak
162 09 Oct 2011 03:33 61.35M 287274.8 Fey Mercurial US-Dath'Remar
163 17 Oct 2018 03:33 59.45M 278059.3 Норм твари EU-Vol'jin
164 17 Apr 2011 03:34 59.48M 277786.8 Casual US-Scilla
165 20 Oct 2011 03:34 59.26M 276725.1 Lethal Reunion US-Moonrunner
166 19 Nov 2011 03:34 59.72M 278755.9 Shadowwww EU-Onyxia
167 10 Jan 2012 03:34 59.57M 277857.3 Mutual Hatred US-Windrunner
168 22 Sep 2011 03:34 59.32M 276488.8 SundayFunday US-Stormscale
169 09 Jan 2012 03:34 59.48M 276840.9 Hotzenplotzen EU-Blackmoore
170 12 Feb 2012 03:35 60.84M 282849.4 Has Cookies US-Kel'Thuzad
171 01 Nov 2010 03:35 59.44M 276230.9 Method EU-Twisting Nether
172 01 Nov 2010 03:35 59.44M 276184.7 Method EU-Twisting Nether
173 21 Oct 2011 03:35 60.62M 281429.5 Eddy Personal EU-Laughing Skull
174 03 Aug 2012 03:35 59.50M 275883.7 Mandrailogs EU-Kazzak
175 14 Aug 2011 03:35 59.44M 275533.8 Excited State EU-Aerie Peak
176 29 Nov 2011 03:36 59.75M 276588.8 Resurrection EU-Frostmourne
177 05 Apr 2012 03:36 59.57M 275598.0 Not a Guild US-Illidan
178 30 Sep 2011 03:36 60.61M 280046.3 cubert US-Bloodhoof
179 24 Jan 2012 03:36 59.78M 275849.9 MY EYES ONLY US-Proudmoore
180 01 Sep 2011 03:36 54.05M 249154.6 Order of Sinfonia US-Cenarion Circle
181 24 Aug 2012 03:37 59.52M 274254.8 LFRs US-Maelstrom
182 04 Feb 2012 03:37 59.62M 274625.6 Computus Demum US-Eonar
183 23 Oct 2011 03:37 61.29M 282016.7 Crit Happens US-The Scryers
184 07 Oct 2019 03:37 59.55M 273975.7 Сладкая Скорбь EU-Черный Шрам
185 09 Apr 2011 03:38 59.44M 272453.7 TEST EU-Sen'jin
186 22 Oct 2011 03:38 59.46M 272037.3 Furious Pantaloons US-Icecrown
187 03 Sep 2018 03:39 59.75M 271992.2 Норм твари EU-Vol'jin
188 15 Aug 2018 03:40 59.66M 271084.1 Норм твари EU-Vol'jin
189 10 Sep 2011 03:40 59.46M 270152.7 Erzritter EU-Blackhand
190 19 Aug 2011 03:40 59.54M 270407.3 Brewa's Bossfights US-Garrosh
191 03 Dec 2011 03:40 59.41M 269569.5 Reluctance US-Bonechewer
192 18 Jun 2012 03:40 59.49M 269876.7 Linkon's Personal Logs US-Aerie Peak
193 06 Nov 2011 03:40 59.40M 269284.7 Veritas US-Velen
194 03 Sep 2011 03:40 59.46M 269448.2 Hadise US-Medivh
195 12 Mar 2011 03:40 59.43M 269087.3 Игра Теней EU-Борейская тундра
196 13 Apr 2012 03:40 60.76M 275056.2 Scorpos US-Nesingwary
197 01 Nov 2011 03:40 62.37M 282344.4 Refugium EU-Zuluhed
198 16 Apr 2011 03:41 59.53M 269276.1 Acids Personal Logs US-Alexstrasza
199 05 Mar 2012 03:41 60.96M 275666.5 Paranoial Activity EU-Runetotem
200 07 May 2012 03:41 63.86M 288661.0 Raskalov EU-Гордунни

Please do not close the page with the ad you want to report.

I've posted a guide on how to report misbehaving ads on the forum. Please follow the instructions and help make the internet a safer place. Thanks for you time.